FW6223 Weather Reports


time (UTC)temp
F
wind
direction
speed
knots
gust
knots
rain 1hr
in
rain 24hr
in
rain mn
in
humidity
%
barometer
mb
20260507051517 47 0.0 5.2 0.00 0.00 0.00 57 1014.0
20260507051117 47 0.0 2.6 0.00 0.00 0.00 56 1014.0
20260507050516 47 0.0 2.6 0.00 0.00 0.00 56 1014.1
20260507050017 47 0.0 4.3 0.00 0.00 0.00 56 1014.0
20260507045547 47 0.0 4.3 0.00 0.00 0.00 58 1014.1
20260507045017 47 0.0 1.7 0.00 0.00 0.00 58 1014.1
20260507044517 46 0.0 4.3 0.00 0.00 0.00 59 1014.1
20260507044017 46 0.0 4.3 0.00 0.00 0.00 60 1014.1
20260507043516 46 0.0 0.0 0.00 0.00 0.00 64 1014.1
20260507043016 46 0.0 0.0 0.00 0.00 0.00 64 1014.1
20260507042517 46 0.0 0.0 0.00 0.00 0.00 64 1014.1
20260507042017 46 0.0 0.0 0.00 0.00 0.00 65 1014.0
20260507041516 46 0.0 0.0 0.00 0.00 0.00 64 1014.0
20260507041047 46 0.0 0.0 0.00 0.00 0.00 63 1014.1
20260507040516 46 0.0 0.0 0.00 0.00 0.00 63 1014.1
20260507040047 46 0.0 0.0 0.00 0.00 0.00 64 1014.0
20260507035517 46 0.0 0.0 0.00 0.00 0.00 62 1014.1
20260507035047 46 0.0 0.0 0.00 0.00 0.00 60 1014.0
20260507034517 46 0.0 0.0 0.00 0.00 0.00 61 1014.1
20260507034017 47 0.0 0.0 0.00 0.00 0.00 61 1014.1
20260507033517 47 0.0 0.0 0.00 0.00 0.00 60 1014.2
20260507033017 47 0.0 0.0 0.00 0.00 0.00 60 1014.1
20260507032517 47 0.0 0.0 0.00 0.00 0.00 60 1014.1
20260507032047 47 0.0 0.0 0.00 0.00 0.00 60 1014.3
20260507031517 47 0.0 0.0 0.00 0.00 0.00 59 1014.2
20260507031017 47 0.0 0.0 0.00 0.00 0.00 58 1014.3
20260507030517 47 0.0 0.0 0.00 0.00 0.00 59 1014.3
20260507030017 48 0.0 0.0 0.00 0.00 0.00 59 1014.3
20260507025517 48 0.0 0.0 0.00 0.00 0.00 59 1014.2
20260507025017 48 0.0 2.6 0.00 0.00 0.00 57 1014.3
20260507024517 47 0.0 5.2 0.00 0.00 0.00 59 1014.3
20260507024017 47 0.0 1.7 0.00 0.00 0.00 59 1014.2
20260507023517 47 0.0 0.0 0.00 0.00 0.00 59 1014.3
20260507023017 47 0.0 0.0 0.00 0.00 0.00 58 1014.2
20260507022547 47 0.0 0.0 0.00 0.00 0.00 59 1014.2
20260507022017 48 0.0 0.0 0.00 0.00 0.00 57 1014.2
20260507021517 48 0.0 0.0 0.00 0.00 0.00 57 1014.1
20260507021017 48 0.0 0.0 0.00 0.00 0.00 58 1014.2
20260507020547 48 0.0 0.0 0.00 0.00 0.00 56 1014.2
20260507020017 48 0.0 1.7 0.00 0.00 0.00 56 1014.1
20260507015517 48 0.0 2.6 0.00 0.00 0.00 59 1014.1
20260507015017 48 0.0 1.7 0.00 0.00 0.00 60 1014.1
20260507014517 48 0.0 0.0 0.00 0.00 0.00 57 1014.0
20260507014017 48 0.0 0.0 0.00 0.00 0.00 57 1014.0
20260507013517 48 0.0 0.0 0.00 0.00 0.00 57 1014.0
20260507013017 48 0.0 0.0 0.00 0.00 0.00 57 1014.0
20260507012517 48 0.0 0.0 0.00 0.00 0.00 56 1013.8
20260507012017 49 0.0 0.0 0.00 0.00 0.00 54 1013.7
20260507011517 49 0.0 0.0 0.00 0.00 0.00 53 1013.7
20260507011047 49 0.0 0.0 0.00 0.00 0.00 56 1013.8
20260507010517 49 0.0 0.0 0.00 0.00 0.00 52 1013.7
20260507010017 49 0.0 0.0 0.00 0.00 0.00 53 1013.8
20260507005517 50 0.0 0.0 0.00 0.00 0.00 53 1013.6
20260507005017 50 0.0 0.0 0.00 0.00 0.00 51 1013.6
20260507004517 50 0.0 0.0 0.00 0.00 0.00 53 1013.6
20260507004017 50 0.0 1.7 0.00 0.00 0.00 52 1013.7
20260507003547 50 0.0 1.7 0.00 0.00 0.00 50 1013.7
20260507003017 50 0.0 1.7 0.00 0.00 0.00 51 1013.6
20260507002517 51 0.0 1.7 0.00 0.00 0.00 49 1013.7
20260507002117 51 0.0 0.0 0.00 0.00 0.00 49 1013.5
20260507001517 51 0.0 1.7 0.00 0.00 0.00 48 1013.5
20260507001017 51 0.0 1.7 0.00 0.00 0.00 47 1013.5
20260507000516 52 315 1.7 4.3 0.00 0.00 0.00 45 1013.5
20260507000017 52 0.0 4.3 0.00 0.00 0.00 46 1013.4
20260506235517 52 0.0 2.6 0.00 0.00 0.00 46 1013.5
20260506235017 52 0.0 1.7 0.00 0.00 0.00 47 1013.4
20260506234517 52 0.0 1.7 0.00 0.00 0.00 46 1013.4
20260506234117 52 0.0 1.7 0.00 0.00 0.00 46 1013.4
20260506233517 52 0.0 2.6 0.00 0.00 0.00 47 1013.5
20260506233017 52 293 1.7 7.0 0.00 0.00 0.00 44 1013.5
20260506232517 52 0.0 2.6 0.00 0.00 0.00 45 1013.4
20260506232017 53 0.0 4.3 0.00 0.00 0.00 45 1013.5
20260506231517 53 293 1.7 7.0 0.00 0.00 0.00 44 1013.4
20260506231016 53 0.0 1.7 0.00 0.00 0.00 44 1013.4
20260506230517 53 0.0 5.2 0.00 0.00 0.00 44 1013.4
20260506230017 53 315 1.7 7.0 0.00 0.00 0.00 43 1013.3
20260506225516 53 293 1.7 9.6 0.00 0.00 0.00 44 1013.2
20260506225047 53 293 1.7 4.3 0.00 0.00 0.00 45 1013.3
20260506224516 53 0.0 1.7 0.00 0.00 0.00 46 1013.3
20260506224016 53 293 1.7 4.3 0.00 0.00 0.00 44 1013.2
20260506223517 53 270 1.7 7.0 0.00 0.00 0.00 43 1013.3
20260506223017 53 0.0 5.2 0.00 0.00 0.00 44 1013.3
20260506222516 53 0.0 1.7 0.00 0.00 0.00 46 1013.2
20260506222016 54 0.0 2.6 0.00 0.00 0.00 43 1013.3
20260506221516 54 248 1.7 8.7 0.00 0.00 0.00 43 1013.3
20260506221017 55 293 1.7 8.7 0.00 0.00 0.00 41 1013.4
20260506220517 55 0.0 4.3 0.00 0.00 0.00 43 1013.2
20260506220017 54 270 1.7 8.7 0.00 0.00 0.00 44 1013.3
20260506215516 54 248 1.7 4.3 0.00 0.00 0.00 44 1013.3
20260506215016 54 293 1.7 12.2 0.00 0.00 0.00 43 1013.3
20260506214517 54 270 1.7 5.2 0.00 0.00 0.00 44 1013.3
20260506214116 54 0.0 2.6 0.00 0.00 0.00 44 1013.2
20260506213517 54 248 1.7 4.3 0.00 0.00 0.00 44 1013.2
20260506213017 54 0.0 4.3 0.00 0.00 0.00 46 1013.2
20260506212516 54 0.0 4.3 0.00 0.00 0.00 46 1013.2
20260506212016 54 248 1.7 5.2 0.00 0.00 0.00 44 1013.2
20260506211516 54 293 1.7 5.2 0.00 0.00 0.00 45 1013.2
20260506211016 54 248 1.7 4.3 0.00 0.00 0.00 44 1013.2
20260506210516 54 248 1.7 5.2 0.00 0.00 0.00 44 1013.2
20260506210016 54 0.0 4.3 0.00 0.00 0.00 46 1013.2
20260506205517 54 270 1.7 7.0 0.00 0.00 0.00 43 1013.2
20260506205016 54 270 1.7 7.0 0.00 0.00 0.00 44 1013.1
20260506204547 54 0.0 4.3 0.00 0.00 0.00 44 1013.3
20260506204016 54 248 1.7 7.0 0.00 0.00 0.00 44 1013.3
20260506203517 54 0.0 4.3 0.00 0.00 0.00 46 1013.3
20260506203016 54 0.0 4.3 0.00 0.00 0.00 46 1013.4
20260506202516 54 0.0 2.6 0.00 0.00 0.00 46 1013.4
20260506202016 54 0.0 2.6 0.00 0.00 0.00 46 1013.4
20260506201516 54 248 1.7 4.3 0.00 0.00 0.00 45 1013.4
20260506201016 55 293 3.5 5.2 0.00 0.00 0.00 43 1013.5
20260506200517 54 293 1.7 5.2 0.00 0.00 0.00 45 1013.5
20260506200016 54 315 1.7 4.3 0.00 0.00 0.00 46 1013.5
20260506195546 54 0.0 2.6 0.00 0.00 0.00 48 1013.5
20260506195016 54 0.0 1.7 0.00 0.00 0.00 47 1013.3
20260506194516 54 0.0 4.3 0.00 0.00 0.00 47 1013.4
20260506194016 54 315 1.7 4.3 0.00 0.00 0.00 47 1013.7
20260506193516 53 0.0 1.7 0.00 0.00 0.00 49 1013.6
20260506193016 53 0.0 1.7 0.00 0.00 0.00 48 1013.6
20260506192516 53 0.0 4.3 0.00 0.00 0.00 48 1013.8
20260506192016 53 68 1.7 7.0 0.00 0.00 0.00 49 1013.7
20260506191516 53 0.0 4.3 0.00 0.00 0.00 48 1013.6
20260506191016 53 0.0 2.6 0.00 0.00 0.00 49 1013.7
20260506190516 53 270 1.7 5.2 0.00 0.00 0.00 49 1013.7
20260506190016 53 0.0 2.6 0.00 0.00 0.00 47 1013.7
20260506185546 53 0.0 5.2 0.00 0.00 0.00 47 1013.7
20260506185016 53 293 1.7 5.2 0.00 0.00 0.00 48 1013.8
20260506184516 54 0 1.7 8.7 0.00 0.00 0.00 47 1013.7
20260506184016 54 270 1.7 7.0 0.00 0.00 0.00 46 1013.6
20260506183516 55 248 1.7 7.0 0.00 0.00 0.00 45 1013.7
20260506183046 55 0.0 5.2 0.00 0.00 0.00 47 1013.6
20260506182516 54 0.0 5.2 0.00 0.00 0.00 48 1013.6
20260506182016 54 270 1.7 7.0 0.00 0.00 0.00 49 1013.6
20260506181516 53 68 1.7 4.3 0.00 0.00 0.00 49 1013.5
20260506181017 53 0.0 2.6 0.00 0.00 0.00 48 1013.7
20260506180516 53 293 1.7 7.0 0.00 0.00 0.00 48 1013.6
20260506180016 52 338 1.7 5.2 0.00 0.00 0.00 48 1013.7
20260506175516 52 68 1.7 5.2 0.00 0.00 0.00 47 1013.8
20260506175016 52 0.0 2.6 0.00 0.00 0.00 48 1013.8
20260506174516 52 315 1.7 4.3 0.00 0.00 0.00 49 1014.0
20260506174016 52 293 1.7 9.6 0.00 0.00 0.00 49 1014.2
20260506173516 52 270 1.7 2.6 0.00 0.00 0.00 48 1014.0
20260506173146 52 293 3.5 7.0 0.00 0.00 0.00 46 1014.2
20260506172516 53 0 1.7 7.0 0.00 0.00 0.00 45 1014.3
20260506172016 54 0.0 1.7 0.00 0.00 0.00 46 1014.3
20260506171516 54 338 1.7 4.3 0.00 0.00 0.00 47 1014.3
20260506171017 53 293 1.7 5.2 0.00 0.00 0.00 47 1014.3
20260506170516 53 315 1.7 7.0 0.00 0.00 0.00 45 1014.3
20260506170016 53 270 1.7 2.6 0.00 0.00 0.00 48 1014.3
20260506165516 53 270 1.7 4.3 0.00 0.00 0.00 46 1014.2
20260506165016 53 315 1.7 5.2 0.00 0.00 0.00 46 1014.3
20260506164516 53 270 1.7 5.2 0.00 0.00 0.00 45 1014.1
20260506164016 52 293 1.7 7.0 0.00 0.00 0.00 47 1014.1
20260506163516 53 68 1.7 4.3 0.00 0.00 0.00 47 1014.3
20260506163046 53 293 1.7 5.2 0.00 0.00 0.00 46 1014.2
20260506162516 53 293 1.7 7.0 0.00 0.00 0.00 46 1014.2
20260506162016 53 68 1.7 8.7 0.00 0.00 0.00 48 1014.2
20260506161516 53 0.0 4.3 0.00 0.00 0.00 47 1014.1
20260506161016 53 293 1.7 7.0 0.00 0.00 0.00 46 1014.2
20260506160516 52 0 1.7 7.0 0.00 0.00 0.00 48 1014.2
20260506160016 51 315 1.7 5.2 0.00 0.00 0.00 48 1014.4
20260506155516 51 270 1.7 4.3 0.00 0.00 0.00 54 1014.3
20260506155016 51 0.0 2.6 0.00 0.00 0.00 55 1014.4
20260506154516 51 248 1.7 5.2 0.00 0.00 0.00 54 1014.5
20260506154016 51 315 1.7 5.2 0.00 0.00 0.00 57 1014.4
20260506153516 51 315 1.7 7.0 0.00 0.00 0.00 54 1014.3
20260506153046 51 270 1.7 5.2 0.00 0.00 0.00 56 1014.3
20260506152516 51 113 1.7 4.3 0.00 0.00 0.00 58 1014.2
20260506152046 51 293 3.5 8.7 0.00 0.00 0.00 57 1014.3
20260506151516 51 293 1.7 8.7 0.00 0.00 0.00 57 1014.2
20260506151016 50 68 1.7 5.2 0.00 0.00 0.00 60 1014.2
20260506150516 50 68 1.7 7.0 0.00 0.00 0.00 59 1014.0
20260506150116 50 338 1.7 5.2 0.00 0.00 0.00 59 1013.9
20260506145516 51 0.0 2.6 0.00 0.03 0.00 63 1013.9
20260506145046 50 0.0 2.6 0.00 0.03 0.00 63 1014.0
20260506144515 49 68 1.7 5.2 0.00 0.03 0.00 63 1013.9
20260506144016 50 0.0 2.6 0.00 0.03 0.00 64 1013.9
20260506143516 50 315 1.7 4.3 0.00 0.03 0.00 62 1013.7
20260506143116 49 0.0 4.3 0.00 0.03 0.00 63 1013.8
20260506142516 49 68 1.7 8.7 0.00 0.03 0.00 64 1013.7
20260506142016 49 0.0 2.6 0.00 0.03 0.00 65 1013.6
20260506141515 48 0.0 2.6 0.00 0.03 0.00 65 1013.6
20260506141016 48 0.0 2.6 0.00 0.03 0.00 65 1013.6
20260506140546 48 68 1.7 5.2 0.00 0.03 0.00 66 1013.5
20260506140016 48 270 1.7 5.2 0.00 0.03 0.00 65 1013.5
20260506135546 48 270 1.7 5.2 0.00 0.03 0.00 64 1013.5
20260506135016 48 0.0 1.7 0.00 0.03 0.00 66 1013.4
20260506134516 47 0.0 2.6 0.00 0.03 0.00 66 1013.4
20260506134116 46 68 1.7 5.2 0.00 0.03 0.00 66 1013.2
20260506133516 46 90 1.7 5.2 0.00 0.03 0.00 69 1013.3
20260506133016 46 68 1.7 7.0 0.00 0.03 0.00 66 1013.3
20260506132516 46 293 1.7 4.3 0.00 0.03 0.00 68 1013.2
20260506132046 46 0.0 1.7 0.00 0.03 0.00 69 1013.2
20260506131515 45 0.0 1.7 0.00 0.03 0.00 69 1013.1
20260506131015 45 90 1.7 4.3 0.00 0.03 0.00 68 1013.1
20260506130516 45 0.0 1.7 0.00 0.03 0.00 69 1013.1
20260506130016 45 68 1.7 2.6 0.00 0.03 0.00 69 1013.0
20260506125515 45 270 1.7 4.3 0.00 0.03 0.00 68 1013.0
20260506125016 44 0.0 2.6 0.00 0.03 0.00 68 1013.0
20260506124546 44 293 1.7 5.2 0.00 0.03 0.00 69 1012.9
20260506124015 43 0.0 2.6 0.00 0.03 0.00 69 1012.9
20260506123516 43 0.0 4.3 0.00 0.03 0.00 68 1012.7
20260506123016 43 270 1.7 5.2 0.00 0.03 0.00 67 1012.8
20260506122516 43 270 1.7 5.2 0.00 0.03 0.00 67 1012.6
20260506122016 43 0.0 2.6 0.00 0.03 0.00 68 1012.5
20260506121515 43 0.0 2.6 0.00 0.03 0.00 67 1012.5
20260506121045 43 0.0 5.2 0.00 0.03 0.00 67 1012.6
20260506120515 42 0.0 2.6 0.00 0.03 0.00 68 1012.4
20260506120015 42 0.0 2.6 0.00 0.03 0.00 67 1012.3
20260506115515 42 0.0 2.6 0.00 0.03 0.00 68 1012.2
20260506115016 42 0.0 2.6 0.00 0.03 0.00 68 1012.1
20260506114515 42 0.0 4.3 0.00 0.03 0.00 68 1011.9
20260506114016 42 0.0 1.7 0.00 0.03 0.00 67 1011.9
20260506113515 42 0.0 4.3 0.00 0.03 0.00 68 1011.7
20260506113046 42 0.0 2.6 0.00 0.03 0.00 69 1011.7
20260506112515 42 0.0 1.7 0.00 0.03 0.00 69 1011.8
20260506112015 42 0.0 1.7 0.00 0.03 0.00 70 1011.8
20260506111515 41 0.0 2.6 0.00 0.03 0.00 70 1011.6
20260506111015 41 0.0 5.2 0.00 0.03 0.00 70 1011.6
20260506110515 40 0.0 1.7 0.00 0.03 0.00 71 1011.5
20260506110015 40 0.0 1.7 0.00 0.03 0.00 72 1011.5
20260506105515 40 0.0 1.7 0.00 0.03 0.00 73 1011.6
20260506105015 40 0.0 0.0 0.00 0.03 0.00 73 1011.7
20260506104516 40 0.0 0.0 0.00 0.03 0.00 73 1011.5
20260506104015 40 0.0 1.7 0.00 0.03 0.00 72 1011.5
20260506103515 39 0.0 1.7 0.00 0.03 0.00 72 1011.4
20260506103015 39 0.0 0.0 0.00 0.03 0.00 73 1011.5
20260506102515 40 0.0 0.0 0.00 0.03 0.00 73 1011.4
20260506102015 40 0.0 0.0 0.00 0.03 0.00 72 1011.2
20260506101616 40 0.0 0.0 0.00 0.03 0.00 72 1011.4
20260506101015 41 0.0 0.0 0.00 0.03 0.00 71 1011.4
20260506100515 41 0.0 0.0 0.00 0.03 0.00 70 1011.2
20260506100015 41 0.0 1.7 0.00 0.03 0.00 69 1010.9
20260506095515 41 0.0 1.7 0.00 0.03 0.00 71 1010.7
20260506095047 42 0.0 0.0 0.00 0.03 0.00 71 1010.8
20260506094648 42 0.0 0.0 0.00 0.03 0.00 71 1010.6
20260506094017 43 0.0 0.0 0.00 0.03 0.00 69 1010.6
20260506093517 43 0.0 0.0 0.00 0.03 0.00 68 1010.6
20260506093047 43 0.0 1.7 0.00 0.03 0.00 66 1010.6
20260506092517 43 0.0 1.7 0.00 0.03 0.00 65 1010.3
20260506092017 43 0.0 4.3 0.00 0.03 0.00 66 1010.4
20260506091547 43 0.0 0.0 0.00 0.03 0.00 66 1010.3
20260506091015 44 0.0 0.0 0.00 0.03 0.00 67 1010.2
20260506090718 44 0.0 1.7 0.00 0.03 0.00 64 1010.5
20260506090047 44 0.0 1.7 0.00 0.03 0.00 63 1010.4
20260506085547 44 0.0 1.7 0.00 0.03 0.00 63 1010.4
20260506085017 44 0.0 2.6 0.00 0.03 0.00 63 1010.3
20260506084547 44 0.0 2.6 0.00 0.03 0.00 62 1010.3
20260506084017 44 0.0 1.7 0.00 0.03 0.00 63 1010.3
20260506083517 45 0.0 1.7 0.00 0.03 0.00 62 1010.4
20260506083017 45 0.0 1.7 0.00 0.03 0.00 63 1010.4
20260506082517 45 0.0 2.6 0.00 0.03 0.00 63 1010.2
20260506082017 45 0.0 4.3 0.00 0.03 0.00 62 1010.4
20260506081517 45 0.0 1.7 0.00 0.03 0.00 63 1010.4
20260506081017 45 0.0 2.6 0.00 0.03 0.00 63 1010.4
20260506080517 45 0.0 2.6 0.00 0.03 0.00 62 1010.5
20260506073517 45 0.0 1.7 0.00 0.03 0.00 62 1010.5
20260506073017 45 0.0 5.2 0.00 0.03 0.00 62 1010.7
20260506072517 46 0.0 2.6 0.00 0.03 0.00 61 1010.6
20260506072017 46 0.0 1.7 0.00 0.03 0.00 61 1010.4
20260506071517 46 0.0 1.7 0.00 0.03 0.00 61 1010.6
20260506071017 46 0.0 2.6 0.00 0.03 0.00 61 1010.5
20260506070517 46 0.0 2.6 0.00 0.03 0.00 61 1010.4
20260506062017 47 0.0 1.7 0.00 0.03 0.00 59 1010.4
20260506061517 47 0.0 1.7 0.00 0.03 0.00 60 1010.5
20260506061017 47 270 1.7 5.2 0.00 0.03 0.00 59 1010.4
20260506060517 47 0.0 1.7 0.00 0.03 0.00 59 1010.5